This is the latest recevied weather packets stored in our database for station/object DG1JLA-3. If no packets are shown the sender has not sent any weather packets the latest 10 day(s).
| Time | Temp. | Humidity | Pressure | Rain* | Wind** | Luminosity | Snow |
|---|---|---|---|---|---|---|---|
| 1777665304 | 12.78° C | 67% | 1029.2 hPa | 0 mm | - | - | - |
| 1777665004 | 12.78° C | 66% | 1029.2 hPa | 0 mm | - | - | - |
| 1777664704 | 13.33° C | 65% | 1029.1 hPa | 0 mm | - | - | - |
| 1777664404 | 13.33° C | 65% | 1029.1 hPa | 0 mm | - | - | - |
| 1777664104 | 13.89° C | 64% | 1029.2 hPa | 0 mm | - | - | - |
| 1777663804 | 13.89° C | 64% | 1029.2 hPa | 0 mm | - | - | - |
| 1777663504 | 13.89° C | 63% | 1029.2 hPa | 0 mm | - | - | - |
| 1777663204 | 14.44° C | 62% | 1029 hPa | 0 mm | - | - | - |
| 1777662904 | 15° C | 60% | 1029.1 hPa | 0 mm | - | - | - |
| 1777662604 | 15° C | 59% | 1029.1 hPa | 0 mm | - | - | - |
| 1777662304 | 15.56° C | 58% | 1029.1 hPa | 0 mm | - | - | - |
| 1777662004 | 15.56° C | 57% | 1029.1 hPa | 0 mm | - | - | - |
| 1777661704 | 15.56° C | 57% | 1029.1 hPa | 0 mm | - | - | - |
| 1777661404 | 15.56° C | 57% | 1029.1 hPa | 0 mm | - | - | - |
| 1777661104 | 15.56° C | 58% | 1029.1 hPa | 0 mm | - | - | - |
| 1777660804 | 15.56° C | 57% | 1029.2 hPa | 0 mm | - | - | - |
| 1777660504 | 16.11° C | 56% | 1029.1 hPa | 0 mm | - | - | - |
| 1777660204 | 16.11° C | 55% | 1029.1 hPa | 0 mm | - | - | - |
| 1777659904 | 16.67° C | 54% | 1029.1 hPa | 0 mm | - | - | - |
| 1777659604 | 16.67° C | 53% | 1029.1 hPa | 0 mm | - | - | - |
| 1777659304 | 17.22° C | 52% | 1029.1 hPa | 0 mm | - | - | - |
| 1777659004 | 17.22° C | 51% | 1029.1 hPa | 0 mm | - | - | - |
| 1777658704 | 17.78° C | 50% | 1029 hPa | 0 mm | - | - | - |
| 1777658404 | 17.78° C | 50% | 1029 hPa | 0 mm | - | - | - |
| 1777658104 | 17.78° C | 50% | 1028.9 hPa | 0 mm | - | - | - |
* Rain latest hour (hover to see other rain measurements)
** Current wind speed in m/s (hover to see current wind gust speed)